Location: ?astrovice
(49.6513°N, 14.9287°E)
Time: 09:00:44
(UTC+00:00)

ATLAS CENTAUR R/B - Pass Details

Date: 09 April 2020
Orbit: 466 x 681 km, 64.7° (Epoch: 20 May)

Event Time Altitude Azimuth Distance (km) Brightness Sun altitude
Rises 20:16:15 0° 321° (NW) 2,686 6.3 -22.0°
Reaches altitude 10° 20:18:32 10° 325° (NW) 1,757 5.0 -22.3°
Enters shadow 20:22:08 58° 24° (NNE) 588 1.5 -22.7°
